Location: ?????
(30.2541°N, 31.0910°E)
Time: 07:46:55
(UTC+00:00)

CZ-2C R/B - Pass Details

Date: 27 September 2022
Orbit: 703 x 908 km, 98.1° (Epoch: 28 November)

Event Time Altitude Azimuth Distance (km) Brightness Sun altitude
Rises 02:34:57 0° 8° (N) 3,527 6.6 -16.3°
Reaches altitude 10° 02:37:24 10° 6° (N) 2,570 5.9 -15.7°
Maximum altitude 02:43:07 69° 284° (WNW) 934 3.2 -14.5°
Drops below altitude 10° 02:48:34 10° 203° (SSW) 2,455 5.3 -13.4°
Sets 02:50:52 0° 200° (SSW) 3,357 6.1 -12.9°
